Lancaster, OH

12:16 AM EST on February 10, 2016 (GMT -0500)
Fairfield County

Weather History for KLHQ - September, 2012

Change the Weather History Date:

Tuesday, September 25, 2012

  Actual Average Record
Temperature  
Mean Temperature 51 °F -  
Max Temperature 63 °F 71 °F 91 °F (1959)
Min Temperature 39 °F 47 °F 32 °F (1942)
Degree Days  
Heating Degree Days 14    
Growing Degree Days 1 (Base 50)    
Moisture  
Dew Point 47 °F    
Average Humidity 76    
Maximum Humidity 93    
Minimum Humidity 54    
Precipitation  
Precipitation 0.01 in - - ()
Sea Level Pressure  
Sea Level Pressure 30.05 in    
Wind  
Wind Speed 5 mph (SSE)    
Max Wind Speed 13 mph    
Max Gust Speed 18 mph    
Visibility 10 miles    
Events Rain    
Averages and records for this station are not official NWS values.
T = Trace of Precipitation, MM = Missing Value Source: NWS Daily Summary

Daily Weather History Graph

Daily Weather History Graph

Search for Another Location

Airport or City:

Trip Planner

Search our weather history database for the weather conditions in past years. The results will help you decide how hot, cold, wet, or windy it might be!

Date:

Astronomy

Sep. 25, 2012 Rise Set
Actual Time 7:21 AM EDT 7:22 PM EDT
Civil Twilight 6:54 AM EDT 7:48 PM EDT
Nautical Twilight 6:23 AM EDT 8:20 PM EDT
Astronomical Twilight 5:51 AM EDT 8:52 PM EDT
Moon 4:45 PM EDT (9/25) 2:42 AM EDT (9/25)
Length of Visible Light 12h 54m
Length of Day
12h 00m
Waxing Gibbous, 80% of the Moon is Illuminated
Sep 25
Waxing Gibbous
Sep 29
Full
Oct 8
Last Quarter
Oct 15
New
Oct 21
First Quarter

Hourly Weather History & Observations

Time (EDT) Temp. Windchill Dew Point Humidity Pressure Visibility Wind Dir Wind Speed Gust Speed Precip Events Conditions
12:53 AM 42.1 °F 40.2 °F 35.1 °F 76% 30.09 in 10.0 mi SSE 3.5 mph - N/A   Clear
1:53 AM 43.0 °F - 37.0 °F 80% 30.09 in 10.0 mi Calm Calm - N/A   Clear
2:53 AM 39.0 °F - 36.0 °F 89% 30.09 in 10.0 mi Calm Calm - N/A   Clear
3:53 AM 39.0 °F - 37.0 °F 93% 30.09 in 10.0 mi Calm Calm - N/A   Clear
4:53 AM 41.0 °F 39.0 °F 37.0 °F 86% 30.08 in 10.0 mi SSE 3.5 mph - N/A   Clear
5:53 AM 43.0 °F 39.5 °F 37.9 °F 82% 30.09 in 10.0 mi SE 5.8 mph - N/A   Clear
6:53 AM 46.9 °F - 41.0 °F 80% 30.07 in 10.0 mi SSE 5.8 mph - N/A   Overcast
7:53 AM 46.9 °F - 39.9 °F 77% 30.05 in 10.0 mi SE 8.1 mph - N/A   Mostly Cloudy
8:53 AM 50.0 °F - 43.0 °F 77% 30.10 in 10.0 mi SE 3.5 mph - N/A   Overcast
9:53 AM 55.9 °F - 45.0 °F 67% 30.09 in 10.0 mi ESE 4.6 mph - N/A   Overcast
10:53 AM 59.0 °F - 44.1 °F 58% 30.08 in 10.0 mi South 4.6 mph - N/A   Overcast
11:53 AM 63.0 °F - 46.0 °F 54% 30.07 in 10.0 mi SSE 11.5 mph - N/A   Mostly Cloudy
12:53 PM 63.0 °F - 46.0 °F 54% 30.07 in 10.0 mi South 12.7 mph 18.4 mph N/A   Scattered Clouds
1:53 PM 63.0 °F - 46.0 °F 54% 30.06 in 10.0 mi SSW 10.4 mph - N/A   Overcast
3:53 PM 62.1 °F - 50.0 °F 65% 30.01 in 10.0 mi South 9.2 mph - N/A   Overcast
4:30 PM 62.6 °F - 51.8 °F 68% 30.01 in 10.0 mi South 6.9 mph - N/A   Overcast
4:53 PM 63.0 °F - 53.1 °F 70% 30.02 in 10.0 mi SSW 6.9 mph - N/A   Overcast
5:53 PM 63.0 °F - 54.0 °F 72% 30.02 in 10.0 mi SSW 8.1 mph - N/A   Mostly Cloudy
6:09 PM 62.6 °F - 53.6 °F 72% 30.01 in 10.0 mi SSW 6.9 mph - N/A   Scattered Clouds
6:53 PM 61.0 °F - 53.1 °F 75% 30.02 in 10.0 mi South 9.2 mph - N/A   Mostly Cloudy
7:06 PM 60.8 °F - 53.6 °F 77% 30.02 in 10.0 mi South 6.9 mph - N/A   Overcast
7:53 PM 60.1 °F - 55.0 °F 83% 30.02 in 9.0 mi SSE 6.9 mph - 0.00 in Rain Light Rain
8:17 PM 59.0 °F - 55.4 °F 88% 30.01 in 10.0 mi SSE 5.8 mph - 0.01 in Rain Light Rain
8:53 PM 57.9 °F - 55.0 °F 90% 30.01 in 10.0 mi South 6.9 mph - 0.01 in   Mostly Cloudy
9:53 PM 57.9 °F - 55.0 °F 90% 30.02 in 10.0 mi SSE 6.9 mph - N/A   Overcast
10:53 PM 59.0 °F - 55.9 °F 90% 30.02 in 10.0 mi SE 6.9 mph - N/A   Overcast
11:53 PM 57.9 °F - 55.9 °F 93% 30.01 in 10.0 mi SE 5.8 mph - N/A   Scattered Clouds